Flag for Iran Weather past 2 weeks in Esfahãn, Iran

Now
46 °F

Overcast.


Feels Like: 44 °F
Forecast: 38 / 62 °F
Wind: 5 mph from South

Location: Esfahan

Current Time: Jan 30, 2015 at 11:27:11 AM

Latest Report: Jan 30, 2015 at 11:00 AM


Visibility: 1 mi

Pressure: 30.15 "Hg

Humidity: 40%

Dew point: 23 °F

Location of EsfahãnLocation

Historic Weather in Esfahãn — Graph

°F

Esfahãn temperature yesterday

Maximum temperature yesterday: 70 °F (at 2:00 PM)
Minimum temperature yesterday: 28 °F (at 7:30 AM)
Average temperature yesterday: 48 °F

Past Weeks' High & Low Weather Summary

 TemperatureHumidityPressure
High70 °F (Jan 29, 2:00 PM)93% (Jan 18, 6:30 AM)30.33 "Hg (Jan 18, 6:30 AM)
Low10 °F (Jan 21, 6:00 AM)12% (Jan 29, 2:00 PM)29.95 "Hg (Jan 29, 4:30 AM)
Average39 °F45%30.13 "Hg
* Reported Jan 15 9:30 AM — Jan 30 10:00 AM, Esfahãn, Weather by CustomWeather, © 2014

Note: Actual official high and low records may vary slightly from our data, if they occured in-between our weather recording intervals... More about our weather records

Advertising

Esfahãn weather history for previous 24 hours

 ConditionsComfort  
Time TempWeatherWind HumidityBarometerVisibility
10:00 AM
Jan 30
45 °FOvercast.5 mph42%30.15 "Hg2 mi
9:30 AM43 °FOvercast.5 mph39%30.12 "Hg2 mi
9:00 AM43 °FMostly cloudy.No wind42%30.12 "Hg2 mi
8:30 AM41 °FMostly cloudy.No wind42%30.12 "Hg2 mi
8:00 AM39 °FPartly sunny.No wind45%30.09 "Hg4 mi
7:30 AM37 °FPartly sunny.5 mph52%30.09 "Hg4 mi
7:00 AM36 °FPartly cloudy.7 mph48%30.09 "Hg4 mi
6:30 AM37 °FClear.5 mph48%30.07 "Hg4 mi
6:00 AM37 °FClear.7 mph48%30.07 "Hg4 mi
5:30 AM34 °FClear.5 mph48%30.04 "Hg4 mi
5:00 AM34 °FClear.5 mph44%30.04 "Hg4 mi
4:30 AM34 °FClear.5 mph48%30.04 "Hg4 mi
4:00 AM30 °FClear.5 mph47%30.04 "Hg10 mi
3:30 AM30 °FClear.5 mph47%30.04 "Hg10 mi
3:00 AM36 °FClear.5 mph44%30.04 "Hg10 mi
2:30 AM32 °FClear.9 mph40%30.04 "Hg10 mi
2:00 AM39 °FClear.5 mph36%30.01 "Hg10 mi
1:30 AM37 °FClear.5 mph41%30.01 "Hg10 mi
1:00 AM37 °FClear.5 mph35%30.01 "Hg10 mi
12:30 AM37 °FClear.No wind38%30.04 "Hg10 mi
12:00 AM39 °FClear.No wind39%30.04 "Hg10 mi
11:30 PM
Jan 29
43 °FClear.No wind34%30.01 "Hg10 mi
11:00 PM46 °FClear.5 mph32%30.01 "Hg10 mi
10:30 PM46 °FClear.No wind32%30.04 "Hg10 mi
10:00 PM46 °FClear.5 mph32%30.04 "Hg10 mi
9:30 PM46 °FClear.5 mph29%30.01 "Hg10 mi
9:00 PM46 °FClear.5 mph29%30.01 "Hg10 mi
8:30 PM46 °FClear.5 mph29%30.01 "Hg10 mi
8:00 PM52 °FPassing clouds.5 mph26%30.01 "HgN/A
7:30 PM54 °FPassing clouds.5 mph24%30.01 "HgN/A
7:00 PM55 °FPassing clouds.5 mph23%30.01 "HgN/A
6:30 PM59 °FPassing clouds.9 mph21%30.01 "HgN/A
6:00 PM63 °FPassing clouds.14 mph17%29.98 "Hg4 mi
5:30 PM63 °FPassing clouds.16 mph17%29.98 "Hg4 mi
5:00 PM66 °FPassing clouds.22 mph14%29.95 "Hg4 mi
4:30 PM68 °FSandstorm.31 mph13%29.95 "Hg3 mi
4:00 PM68 °FSandstorm.26 mph12%29.95 "Hg3 mi
3:30 PM70 °FSandstorm.22 mph12%29.95 "Hg3 mi
3:00 PM70 °FPassing clouds.22 mph12%29.95 "Hg4 mi
2:30 PM70 °FScattered clouds.22 mph12%29.95 "Hg4 mi
2:00 PM70 °FScattered clouds.22 mph12%29.95 "Hg4 mi
1:30 PM66 °FPassing clouds.16 mph15%29.98 "Hg4 mi
1:00 PM64 °FClear.12 mph16%29.98 "Hg4 mi
12:30 PM61 °FClear.5 mph19%30.01 "Hg4 mi
12:00 PM61 °FClear.9 mph17%30.04 "Hg4 mi
11:30 AM59 °FClear.9 mph23%30.04 "Hg4 mi
11:00 AM55 °FHaze.9 mph33%30.07 "Hg3 mi
Weather by CustomWeather, © 2014

See weather overviewHow to use our weather pages